Hourly Weather Dziadownia

Today, 15 May, Saturday

Time Temperature Precipitation Wind Pressure Humidity
00:00 +9°C° 0 mm 3 mps 739 mmHg 90%
01:00 +8°C° 0 mm 4 mps 740 mmHg 92%
02:00 +8°C° 0 mm 3 mps 740 mmHg 93%
03:00 +8°C° 0 mm 3 mps 740 mmHg 95%
04:00 +7°C° 0 mm 3 mps 740 mmHg 96%
05:00 +9°C° 0 mm 3 mps 740 mmHg 91%
06:00 +10°C° 0 mm 3 mps 741 mmHg 85%
07:00 +11°C° 0 mm 3 mps 741 mmHg 80%
08:00 +13°C° 0 mm 3 mps 741 mmHg 73%
09:00 +14°C° 0 mm 3 mps 741 mmHg 67%
10:00 +17°C° 0 mm 3 mps 741 mmHg 61%
11:00 +18°C° 0.1 mm 3 mps 740 mmHg 57%
12:00 +18°C° 0.1 mm 2 mps 740 mmHg 53%
13:00 +19°C° 0.1 mm 2 mps 740 mmHg 49%
14:00 +19°C° 0 mm 2 mps 739 mmHg 51%
15:00 +19°C° 0 mm 2 mps 739 mmHg 53%
16:00 +20°C° 0 mm 1 mps 739 mmHg 55%
17:00 +18°C° 0.4 mm 2 mps 739 mmHg 62%
18:00 +16°C° 0.4 mm 2 mps 739 mmHg 70%
19:00 +14°C° 0.4 mm 3 mps 738 mmHg 77%
20:00 +13°C° 0.5 mm 3 mps 738 mmHg 83%
21:00 +12°C° 0.5 mm 3 mps 739 mmHg 88%
22:00 +11°C° 0.5 mm 3 mps 739 mmHg 94%
23:00 +12°C° 0.3 mm 2 mps 739 mmHg 94%

Tomorrow, 16 May, Sunday

Time Temperature Precipitation Wind Pressure Humidity
00:00 +12°C° 0.3 mm 2 mps 739 mmHg 95%
01:00 +10°C° 0.3 mm 2 mps 738 mmHg 95%
02:00 +10°C° 0.4 mm 2 mps 738 mmHg 95%
03:00 +10°C° 0.4 mm 2 mps 738 mmHg 95%
04:00 +10°C° 0.4 mm 2 mps 738 mmHg 95%
05:00 +12°C° 0.1 mm 2 mps 738 mmHg 92%
06:00 +13°C° 0.1 mm 2 mps 738 mmHg 90%
07:00 +13°C° 0.1 mm 2 mps 738 mmHg 87%
08:00 +14°C° 0.2 mm 2 mps 738 mmHg 82%
09:00 +15°C° 0.2 mm 2 mps 738 mmHg 76%
10:00 +16°C° 0.2 mm 3 mps 738 mmHg 70%
11:00 +14°C° 0.8 mm 3 mps 738 mmHg 75%
12:00 +13°C° 0.8 mm 3 mps 738 mmHg 79%
13:00 +12°C° 0.8 mm 4 mps 738 mmHg 84%
14:00 +13°C° 0.5 mm 3 mps 738 mmHg 81%
15:00 +14°C° 0.5 mm 2 mps 738 mmHg 77%
16:00 +15°C° 0.5 mm 1 mps 737 mmHg 74%
17:00 +14°C° 0.1 mm 2 mps 737 mmHg 77%
18:00 +13°C° 0.1 mm 2 mps 737 mmHg 81%
19:00 +13°C° 0.1 mm 2 mps 737 mmHg 84%
20:00 +12°C° 0 mm 2 mps 737 mmHg 86%
21:00 +10°C° 0 mm 2 mps 737 mmHg 89%
22:00 +9°C° 0 mm 3 mps 738 mmHg 92%
23:00 +9°C° 0 mm 3 mps 738 mmHg 92%

Day after tomorrow, 17 May, Monday

Time Temperature Precipitation Wind Pressure Humidity
00:00 +9°C° 0 mm 3 mps 738 mmHg 92%
01:00 +9°C° 0 mm 3 mps 738 mmHg 92%
02:00 +8°C° 0 mm 3 mps 737 mmHg 91%
03:00 +8°C° 0 mm 3 mps 737 mmHg 91%
04:00 +8°C° 0 mm 3 mps 737 mmHg 91%
05:00 +9°C° 0.3 mm 3 mps 738 mmHg 91%
06:00 +10°C° 0.3 mm 3 mps 738 mmHg 90%
07:00 +11°C° 0.3 mm 3 mps 738 mmHg 90%
08:00 +12°C° 0.4 mm 3 mps 738 mmHg 87%
09:00 +12°C° 0.4 mm 3 mps 738 mmHg 84%
10:00 +13°C° 0.4 mm 3 mps 738 mmHg 80%
11:00 +13°C° 0.5 mm 4 mps 738 mmHg 78%
12:00 +14°C° 0.5 mm 4 mps 738 mmHg 76%
13:00 +14°C° 0.5 mm 4 mps 738 mmHg 74%
14:00 +14°C° 0.6 mm 4 mps 738 mmHg 74%
15:00 +14°C° 0.6 mm 5 mps 738 mmHg 74%
16:00 +15°C° 0.6 mm 5 mps 738 mmHg 73%
17:00 +13°C° 0.7 mm 4 mps 738 mmHg 78%
18:00 +12°C° 0.7 mm 4 mps 738 mmHg 83%
19:00 +11°C° 0.7 mm 4 mps 738 mmHg 88%
20:00 +10°C° 0 mm 4 mps 738 mmHg 90%
21:00 +8°C° 0 mm 4 mps 739 mmHg 92%
22:00 +9°C° 0 mm 3 mps 739 mmHg 93%
23:00 +7°C° 0 mm 4 mps 739 mmHg 93%

18 May, Tuesday

Time Temperature Precipitation Wind Pressure Humidity
00:00 +7°C° 0 mm 4 mps 739 mmHg 93%
01:00 +7°C° 0 mm 4 mps 739 mmHg 93%
02:00 +7°C° 0 mm 4 mps 739 mmHg 94%
03:00 +6°C° 0 mm 4 mps 739 mmHg 94%
04:00 +5°C° 0 mm 3 mps 739 mmHg 95%
05:00 +7°C° 0 mm 4 mps 739 mmHg 91%
06:00 +8°C° 0 mm 4 mps 740 mmHg 86%
07:00 +9°C° 0 mm 5 mps 740 mmHg 82%
08:00 +10°C° 0.1 mm 5 mps 740 mmHg 81%
09:00 +10°C° 0.1 mm 5 mps 740 mmHg 80%
10:00 +10°C° 0.1 mm 5 mps 740 mmHg 79%
11:00 +12°C° 0.2 mm 5 mps 740 mmHg 76%
12:00 +13°C° 0.2 mm 6 mps 740 mmHg 72%
13:00 +14°C° 0.2 mm 6 mps 740 mmHg 69%
14:00 +14°C° 0.5 mm 5 mps 740 mmHg 70%
15:00 +14°C° 0.5 mm 5 mps 740 mmHg 72%
16:00 +14°C° 0.5 mm 5 mps 740 mmHg 74%
17:00 +13°C° 0.3 mm 4 mps 741 mmHg 79%
18:00 +12°C° 0.3 mm 4 mps 741 mmHg 84%
19:00 +11°C° 0.3 mm 3 mps 741 mmHg 88%
20:00 +10°C° 0.1 mm 3 mps 741 mmHg 90%
21:00 +9°C° 0.1 mm 3 mps 742 mmHg 92%
22:00 +8°C° 0.1 mm 3 mps 742 mmHg 93%
23:00 +8°C° 0 mm 3 mps 742 mmHg 93%

19 May, Wednesday

Time Temperature Precipitation Wind Pressure Humidity
00:00 +7°C° 0 mm 4 mps 742 mmHg 93%
01:00 +6°C° 0 mm 4 mps 742 mmHg 93%
02:00 +6°C° 0 mm 4 mps 742 mmHg 94%
03:00 +6°C° 0 mm 4 mps 742 mmHg 94%
04:00 +7°C° 0 mm 3 mps 742 mmHg 95%
05:00 +6°C° 0 mm 4 mps 742 mmHg 94%
06:00 +7°C° 0 mm 4 mps 743 mmHg 94%
07:00 +8°C° 0 mm 5 mps 743 mmHg 93%
08:00 +9°C° 0.2 mm 5 mps 743 mmHg 88%
09:00 +10°C° 0.2 mm 5 mps 744 mmHg 82%
10:00 +12°C° 0.2 mm 5 mps 744 mmHg 77%
11:00 +11°C° 0.3 mm 6 mps 744 mmHg 73%
12:00 +13°C° 0.3 mm 6 mps 744 mmHg 69%
13:00 +14°C° 0.3 mm 6 mps 744 mmHg 65%
14:00 +14°C° 0.2 mm 5 mps 744 mmHg 63%
15:00 +14°C° 0.2 mm 5 mps 744 mmHg 61%
16:00 +14°C° 0.2 mm 5 mps 743 mmHg 59%
17:00 +13°C° 0.1 mm 5 mps 744 mmHg 66%
18:00 +12°C° 0.1 mm 4 mps 744 mmHg 73%
19:00 +10°C° 0.1 mm 3 mps 744 mmHg 80%
20:00 +9°C° 0 mm 3 mps 744 mmHg 84%
21:00 +8°C° 0 mm 3 mps 744 mmHg 87%
22:00 +7°C° 0 mm 3 mps 745 mmHg 90%
23:00 +7°C° 0 mm 3 mps 745 mmHg 92%

20 May, Thursday

Time Temperature Precipitation Wind Pressure Humidity
00:00 +7°C° 0 mm 3 mps 745 mmHg 93%
01:00 +5°C° 0 mm 3 mps 745 mmHg 95%
02:00 +5°C° 0 mm 3 mps 745 mmHg 95%
03:00 +5°C° 0 mm 4 mps 745 mmHg 96%
04:00 +5°C° 0 mm 4 mps 745 mmHg 96%
05:00 +6°C° 0 mm 5 mps 746 mmHg 93%
06:00 +6°C° 0 mm 5 mps 746 mmHg 91%
07:00 +7°C° 0 mm 6 mps 746 mmHg 88%
08:00 +8°C° 0.1 mm 6 mps 747 mmHg 84%
09:00 +8°C° 0.1 mm 6 mps 747 mmHg 81%
10:00 +9°C° 0.1 mm 6 mps 747 mmHg 77%
11:00 +10°C° 0.1 mm 6 mps 747 mmHg 74%
12:00 +10°C° 0.1 mm 6 mps 747 mmHg 71%
13:00 +11°C° 0.1 mm 6 mps 747 mmHg 68%
14:00 +11°C° 0.1 mm 6 mps 747 mmHg 69%
15:00 +11°C° 0.1 mm 6 mps 747 mmHg 69%
16:00 +11°C° 0.1 mm 6 mps 747 mmHg 70%
17:00 +10°C° 0.1 mm 5 mps 747 mmHg 75%
18:00 +11°C° 0.1 mm 4 mps 747 mmHg 79%
19:00 +10°C° 0.1 mm 3 mps 747 mmHg 84%
20:00 +9°C° 0 mm 3 mps 747 mmHg 87%
21:00 +8°C° 0 mm 3 mps 747 mmHg 89%
22:00 +7°C° 0 mm 3 mps 747 mmHg 91%
23:00 +7°C° 0 mm 3 mps 747 mmHg 92%
Show more

We Need Your Consent

Meteoprog and our Service Providers may store and access personal data such as cookies, device identifiers or other similar technologies on your device and process such data to personalise content and ads, as well as provide social media features and to analyse the traffic.

  • Store and/or access information on your device

    Cookies, device identifiers or other information can be stored or accessed on your device for the purposes indicated above.

  • Personalised ads and content, ad and content measurement, audience insights, and products development

    Ads and content can be personalised based on a profile. More data can be added to better personalise ads and content. Ad and content performance can be measured. Insights about the audience who saw the ads and content can be derived. Such data can be used to develop or improve user’s experience, systems and software.

By clicking ‘I Agree’ you will allow the use of indicated cookies, device identifiers, web beacons or other similar technologies. Your settings can be changed in the browser on your device.

For certain purposes, legitimate interests may be relied on, rather than consent. You can read more about this in our Privacy and Cookie Policy.